Palm Springs, CA

7:53 PM PST on December 09, 2016 (GMT -0800)
Palm Springs International

Weather History for KPSP - March, 2013

Change the Weather History Date:

Saturday, March 30, 2013

  Actual Average Record
Temperature  
Mean Temperature 80 °F 68 °F  
Max Temperature 91 °F 81 °F 100 °F (1966)
Min Temperature 69 °F 54 °F 39 °F (1967)
Degree Days  
Heating Degree Days 0 1  
Month to date heating degree days 22 71  
Since 1 July heating degree days 760 849  
Cooling Degree Days 15 4  
Month to date cooling degree days 211 87  
Year to date cooling degree days 223 114  
Growing Degree Days 30 (Base 50)    
Moisture  
Dew Point 43 °F    
Average Humidity 32    
Maximum Humidity 47    
Minimum Humidity 16    
Precipitation  
Precipitation 0.00 in 0.01 in 0.02 in (1978)
Month to date precipitation 0.04 0.61  
Year to date precipitation 0.97 2.64  
Since 1 July precipitation 2.19  
Snow  
Snow 0.00 in - - ()
Month to date snowfall 0.0  
Year to date snowfall 0.0  
Snow Depth 0.00 in    
Sea Level Pressure  
Sea Level Pressure 29.94 in    
Wind  
Wind Speed 7 mph (NW)    
Max Wind Speed 20 mph    
Max Gust Speed 24 mph    
Visibility 10 miles    
Events      
T = Trace of Precipitation, MM = Missing Value Source: NWS Daily Summary

Daily Weather History Graph

Daily Weather History Graph

Search for Another Location

Airport or City:

Trip Planner

Search our weather history database for the weather conditions in past years. The results will help you decide how hot, cold, wet, or windy it might be!

Date:

Astronomy

Mar. 30, 2013 Rise Set
Actual Time 6:35 AM PDT 7:05 PM PDT
Civil Twilight 6:10 AM PDT 7:30 PM PDT
Nautical Twilight 5:41 AM PDT 8:00 PM PDT
Astronomical Twilight 5:11 AM PDT 8:30 PM PDT
Moon 11:05 PM PDT (3/30) 8:45 AM PDT (3/30)
Length of Visible Light 13h 19m
Length of Day
12h 29m
Waning Gibbous, 85% of the Moon is Illuminated
Mar 30
Waning Gibbous
Apr 2
Last Quarter
Apr 10
New
Apr 18
First Quarter
Apr 25
Full

Hourly Weather History & Observations

Time (PDT) Temp. Dew Point Humidity Pressure Visibility Wind Dir Wind Speed Gust Speed Precip Events Conditions
12:53 AM 73.9 °F 48.0 °F 40% 29.99 in 10.0 mi NW 9.2 mph - N/A   Clear
1:53 AM 73.9 °F 46.9 °F 38% 29.97 in 10.0 mi West 3.5 mph - N/A   Clear
2:53 AM 72.0 °F 48.0 °F 43% 29.96 in 10.0 mi Calm Calm - N/A   Clear
3:53 AM 72.0 °F 48.0 °F 43% 29.94 in 10.0 mi Calm Calm - N/A   Clear
4:53 AM 70.0 °F 46.9 °F 44% 29.94 in 10.0 mi SSE 3.5 mph - N/A   Clear
5:53 AM 70.0 °F 48.0 °F 46% 29.94 in 10.0 mi WNW 4.6 mph - N/A   Clear
6:53 AM 69.1 °F 48.0 °F 47% 29.96 in 10.0 mi Calm Calm - N/A   Clear
7:53 AM 73.0 °F 46.0 °F 38% 29.97 in 10.0 mi SSE 3.5 mph - N/A   Scattered Clouds
8:53 AM 77.0 °F 39.9 °F 26% 29.98 in 10.0 mi NW 6.9 mph - N/A   Clear
9:53 AM 79.0 °F 43.0 °F 28% 29.99 in 10.0 mi NW 10.4 mph - N/A   Scattered Clouds
10:53 AM 82.9 °F 39.9 °F 22% 29.98 in 10.0 mi South 4.6 mph - N/A   Clear
11:53 AM 84.9 °F 36.0 °F 17% 29.97 in 10.0 mi Calm Calm - N/A   Partly Cloudy
12:53 PM 88.0 °F 37.0 °F 16% 29.96 in 10.0 mi NW 9.2 mph - N/A   Clear
1:53 PM 90.0 °F 37.9 °F 16% 29.94 in 10.0 mi NW 13.8 mph 20.7 mph N/A   Clear
2:53 PM 90.0 °F 37.9 °F 16% 29.92 in 10.0 mi NNW 17.3 mph 23.0 mph N/A   Clear
3:53 PM 89.1 °F 39.0 °F 17% 29.90 in 10.0 mi NNW 19.6 mph 23.0 mph N/A   Clear
4:53 PM 88.0 °F 37.9 °F 17% 29.88 in 10.0 mi NW 17.3 mph 24.2 mph N/A   Clear
5:53 PM 86.0 °F 39.0 °F 19% 29.88 in 10.0 mi NW 16.1 mph 25.3 mph N/A   Clear
6:53 PM 82.9 °F 46.0 °F 27% 29.88 in 10.0 mi NW 15.0 mph - N/A   Clear
7:53 PM 81.0 °F 43.0 °F 26% 29.89 in 10.0 mi NW 10.4 mph 24.2 mph N/A   Clear
8:53 PM 79.0 °F 43.0 °F 28% 29.91 in 10.0 mi NW 15.0 mph 21.9 mph N/A   Clear
9:53 PM 75.0 °F 45.0 °F 34% 29.92 in 10.0 mi NW 18.4 mph 25.3 mph N/A   Clear
10:53 PM 73.0 °F 46.0 °F 38% 29.92 in 10.0 mi NW 20.7 mph 27.6 mph N/A   Clear
11:53 PM 73.0 °F 41.0 °F 31% 29.93 in 10.0 mi NW 18.4 mph 24.2 mph N/A   Clear